TimeCST,TemperatureF,Dew PointF,Humidity,Sea Level PressureIn,VisibilityMPH,Wind Direction,Wind SpeedMPH,Gust SpeedMPH,PrecipitationIn,Events,Conditions,WindDirDegrees,DateUTC
12:16 AM,32.0,30.2,93,29.93,3.0,East,3.5,-,0.00,,Overcast,90,2013-12-14 06:16:00
12:54 AM,33.1,30.9,92,29.94,4.0,ESE,4.6,-,0.02,Snow,Light Snow,110,2013-12-14 06:54:00
1:54 AM,33.1,30.9,92,29.93,4.0,ESE,4.6,-,0.00,Snow,Light Snow,110,2013-12-14 07:54:00
2:04 AM,33.8,30.2,87,29.89,2.5,East,4.6,-,0.01,Snow,Light Snow,90,2013-12-14 08:04:00
2:12 AM,32.0,30.2,93,29.90,4.0,East,4.6,-,0.01,Snow,Light Snow,100,2013-12-14 08:12:00
2:54 AM,33.1,30.9,92,29.90,2.0,East,4.6,-,0.03,Snow,Light Snow,80,2013-12-14 08:54:00
3:02 AM,32.0,30.2,93,29.87,1.0,ENE,3.5,-,0.01,Snow,Light Snow,70,2013-12-14 09:02:00
3:12 AM,32.0,30.2,93,29.87,0.8,ENE,3.5,-,0.04,Snow,Light Snow,70,2013-12-14 09:12:00
3:24 AM,32.0,30.2,93,29.87,1.0,ENE,3.5,-,0.05,Snow,Light Snow,60,2013-12-14 09:24:00
3:39 AM,32.0,30.2,93,29.86,0.8,ENE,3.5,-,0.07,Snow,Light Snow,70,2013-12-14 09:39:00
3:47 AM,32.0,30.2,93,29.86,1.0,Calm,Calm,-,0.08,Snow,Light Snow,0,2013-12-14 09:47:00
3:54 AM,32.0,32.0,100,29.89,1.0,Calm,Calm,-,0.09,Snow,Light Snow,0,2013-12-14 09:54:00
4:06 AM,32.0,30.2,93,29.86,0.8,Calm,Calm,-,0.01,Snow,Light Snow,0,2013-12-14 10:06:00
4:54 AM,32.0,30.9,96,29.87,0.8,Calm,Calm,-,0.09,Snow,Light Snow,0,2013-12-14 10:54:00
5:01 AM,32.0,30.2,93,29.84,1.0,Calm,Calm,-,0.00,Snow,Light Snow,0,2013-12-14 11:01:00
5:21 AM,32.0,32.0,100,29.84,2.5,Calm,Calm,-,0.00,Snow,Light Snow,0,2013-12-14 11:21:00
5:34 AM,32.0,32.0,100,29.84,1.5,Calm,Calm,-,0.01,Snow,Light Snow,0,2013-12-14 11:34:00
5:54 AM,32.0,30.9,96,29.87,1.2,Calm,Calm,-,0.02,Snow,Light Snow,0,2013-12-14 11:54:00
6:14 AM,32.0,32.0,100,29.85,0.8,Calm,Calm,-,0.02,Snow,Light Snow,0,2013-12-14 12:14:00
6:45 AM,32.0,30.2,93,29.86,0.8,NW,3.5,-,0.06,Snow,Light Snow,310,2013-12-14 12:45:00
6:54 AM,32.0,30.9,96,29.88,0.8,NW,3.5,-,0.08,Snow,Light Snow,310,2013-12-14 12:54:00
7:51 AM,32.0,30.2,93,29.87,1.2,NW,4.6,-,0.07,Snow,Light Snow,320,2013-12-14 13:51:00
7:54 AM,32.0,30.9,96,29.90,1.2,NW,4.6,-,0.07,Snow,Light Snow,320,2013-12-14 13:54:00
8:24 AM,32.0,30.2,93,29.89,2.0,NW,4.6,-,0.00,Snow,Light Snow,320,2013-12-14 14:24:00
8:38 AM,32.0,30.2,93,29.90,4.0,NW,4.6,-,0.00,Snow,Light Snow,310,2013-12-14 14:38:00
8:54 AM,33.1,30.9,92,29.93,2.5,NW,5.8,-,0.00,Snow,Light Snow,320,2013-12-14 14:54:00
9:01 AM,33.8,30.2,87,29.90,2.5,NNW,5.8,-,0.00,Snow,Light Snow,330,2013-12-14 15:01:00
9:54 AM,33.1,30.9,92,29.94,8.0,WNW,5.8,-,0.00,,Overcast,300,2013-12-14 15:54:00
10:54 AM,34.0,30.9,89,29.96,10.0,WNW,11.5,-,N/A,,Overcast,300,2013-12-14 16:54:00
11:54 AM,34.0,30.0,85,29.94,10.0,NW,13.8,-,N/A,,Overcast,320,2013-12-14 17:54:00
12:54 PM,33.1,28.9,85,29.94,8.0,NW,15.0,24.2,N/A,,Overcast,320,2013-12-14 18:54:00
1:54 PM,33.1,28.9,85,29.96,6.0,NW,13.8,21.9,N/A,,Overcast,310,2013-12-14 19:54:00
2:54 PM,30.9,27.0,85,30.00,5.0,NW,16.1,-,N/A,,Overcast,320,2013-12-14 20:54:00
3:54 PM,30.0,27.0,88,30.04,4.0,WNW,12.7,-,N/A,,Overcast,300,2013-12-14 21:54:00
4:54 PM,28.9,25.0,85,30.08,6.0,WNW,12.7,21.9,N/A,,Overcast,300,2013-12-14 22:54:00
5:54 PM,28.9,25.0,85,30.11,6.0,WNW,16.1,-,N/A,,Overcast,300,2013-12-14 23:54:00
6:54 PM,28.9,24.1,82,30.12,7.0,WNW,10.4,-,N/A,,Overcast,300,2013-12-15 00:54:00
7:54 PM,28.0,23.0,81,30.15,6.0,NW,15.0,-,N/A,,Haze,310,2013-12-15 01:54:00
8:54 PM,27.0,23.0,85,30.17,7.0,WNW,11.5,19.6,N/A,,Overcast,300,2013-12-15 02:54:00
9:25 PM,26.6,23.0,86,30.14,7.0,WNW,9.2,-,N/A,,Overcast,300,2013-12-15 03:25:00
9:54 PM,27.0,23.0,85,30.17,8.0,WNW,13.8,-,N/A,,Overcast,290,2013-12-15 03:54:00
10:54 PM,27.0,23.0,85,30.18,7.0,WNW,11.5,-,N/A,,Overcast,300,2013-12-15 04:54:00
11:26 PM,26.6,21.2,80,30.16,7.0,WNW,12.7,-,N/A,,Overcast,290,2013-12-15 05:26:00
11:54 PM,27.0,21.0,78,30.19,10.0,WNW,13.8,-,N/A,,Overcast,300,2013-12-15 05:54:00